NIMIQ 6

Last updated on Thu Nov 21 2024 00:02:42 GMT+0000 (Coordinated Universal Time)

1 38342U 12026A 24324.49103769 -.00000172 00000+0 00000+0 0 9994 2 38342 0.0256 49.2062 0003001 185.9084 269.5778 1.00270606 44652
UTC large
Height (km)
Speed (km/s)
/
Latitude / Longitude
Inclination (degrees)
Orbital Period (minutes)
Azimuth
Elevation
Range (km)
Doppler Factor

Next 0 passes for location: London (51.5072 / 0.1276)

Sorry there are no passes over London.